User: anonymous   Login
Location: Monroe
(41.9160°N, 83.3980°W)
Time: 09:02:37
(UTC-05:00)
Language:

deb Explorer IX - Orbit

View from above orbital plane
View from above orbital plane
View from above satellite
View from above satellite

Ground track
Ground track

The orbit data is extracted from the following two-line orbital elements,

1    85U 61004C   17324.67491761 +.00001468 +00000-0 +33609-3 0  9995
2    85 038.7746 125.5541 0402610 009.6407 351.1790 14.18119564797528
Epoch (UTC): 20 November 2017 16:11:52
Eccentricity: 0.0402610
inclination: 38.7746°
perigee height: 541 km
apogee height: 1122 km
right ascension of ascending node: 125.5541°
argument of perigee: 9.6407°
revolutions per day: 14.18119564
mean anomaly at epoch: 351.1790°
orbit number at epoch: 79752

The dashed part of the orbit path shows where the satellite is in the earth's shadow,  

DLR